• Join FlightAware (Why Join?)
  • Login
  • US Flag 
12:34AM EDT


 

Airport Tracker/Info


-or-


 

Live Flight TrackerFlight Track Log ✈ N502QS ✈ 18-Sep-2013 ✈ KDCA - KHPN

Flight Track Log - Related Links

Times and Time Zones

All times are in EDT time to prevent confusion due to time zone crossing. See the N502QS flight status page for this flight to view local times or setup timezone preferences in your user account.

Time Position Orientation Groundspeed Altitude Reporting Facility
EDT Latitude Longitude Course Direction KTS MPH feet Rate Location/Type
02:36PM 38.8000 -77.0333 98° East 217 250 4,300  Level Potomac TRACON
02:38PM 38.7833 -76.8858 98° East 260 299 11,300 3,300 Climbing Washington Center
02:39PM 38.8408 -76.7856 54° Northeast 299 344 14,600 3,240 Climbing Washington Center
02:40PM 38.9044 -76.6719 54° Northeast 333 383 17,900 2,820 Climbing Washington Center
02:41PM 38.9700 -76.5556 54° Northeast 373 429 20,300 2,520 Climbing Washington Center
02:42PM 39.0356 -76.4306 56° Northeast 398 458 22,900 1,320 Climbing Washington Center
02:43PM 39.0778 -76.3217 63° Northeast 413 475 23,000  Climbing Washington Center
02:44PM 39.1308 -76.1428 69° East 421 484 23,000  Level Washington Center
02:45PM 39.2003 -76.0228 53° Northeast 421 484 23,000  Level Washington Center
02:46PM 39.2736 -75.9053 51° Northeast 421 484 23,000  Level Washington Center
02:47PM 39.3447 -75.7875 52° Northeast 421 484 23,000  Level Washington Center
02:48PM 39.4178 -75.6694 51° Northeast 415 478 23,000  Level Washington Center
02:49PM 39.4906 -75.5486 52° Northeast 415 478 23,000  Level Washington Center
02:50PM 39.5614 -75.4300 52° Northeast 415 478 23,000  Level Washington Center
02:52PM 39.6669 -75.1642 63° Northeast 411 473 23,000  Level New York Center
02:53PM 39.6975 -75.0122 75° East 416 479 23,000  Level New York Center
02:54PM 39.7603 -74.8892 56° Northeast 405 466 23,000  Level New York Center
02:55PM 39.8492 -74.7861 42° Northeast 411 473 23,000  Level New York Center
02:56PM 39.9300 -74.6769 46° Northeast 416 479 23,000  Level New York Center
02:57PM 40.0108 -74.5678 46° Northeast 421 484 23,000  Level New York Center
02:58PM 40.0425 -74.4258 74° East 403 464 23,000 -3,000 Level New York Center
02:59PM 40.0983 -74.2983 60° Northeast 403 464 17,000  Descending New York Center
03:00PM 40.0306 -74.1242 117° Southeast 311 358 23,000 3,000 Climbing New York Center
03:01PM 40.0347 -73.9700 88° East 355 409 23,000 -120 Level New York Center
03:02PM 40.0494 -73.8161 83° East 398 458 22,800 -1,200 Descending New York Center
03:04PM 40.2314 -73.5869 44° Northeast 382 440 19,200 -1,560 Descending Boston Center
03:05PM 40.3114 -73.5122 35° Northeast 387 445 17,900 -1,140 Descending Boston Center
03:06PM 40.4058 -73.4431 29° Northeast 392 451 17,000 -540 Descending Boston Center
03:07PM 40.5103 -73.4092 14° North 383 441 16,900 -420 Descending Boston Center
03:08PM 40.6147 -73.3697 16° North 383 441 16,200 -1,200 Descending Boston Center
03:09PM 40.6833 -73.3500 12° North 372 428 15,000 -840 Descending New York TRACON
03:10PM 40.7667 -73.3167 17° North 314 361 15,000 -1,140 Level New York TRACON
03:11PM 40.8333 -73.2167 49° Northeast 309 356 12,800 -1,980 Descending New York TRACON
03:12PM 40.8667 -73.1500 57° Northeast 300 345 11,100 -960 Descending New York TRACON
03:13PM 40.9167 -73.0500 56° Northeast 286 329 10,900 -900 Descending New York TRACON
03:14PM 40.9833 -73.0500 360° North 292 336 9,300 -1,860 Descending New York TRACON
03:15PM 41.0667 -73.0833 343° North 282 325 7,400 -1,680 Descending New York TRACON
03:16PM 41.1167 -73.1500 315° West 266 306 6,000 -1,680 Descending New York TRACON
03:17PM 41.1333 -73.2500 283° West 265 305 4,100 -1,020 Descending New York TRACON
03:18PM 41.1667 -73.3333 298° West 261 300 4,000 -720 Descending New York TRACON
03:19PM 41.1333 -73.4167 242° Southwest 260 299 2,700 -900 Descending New York TRACON
03:20PM 41.0833 -73.4667 217° Southwest 206 237 2,200 -360 Descending New York TRACON
03:21PM 41.0500 -73.5167 229° Southwest 200 230 2,000 -120 Descending New York TRACON
03:22PM 41.0167 -73.5833 236° Southwest 198 228 2,000  Level New York TRACON
03:23PM 41.0000 -73.6333 246° West 178 205 2,000 -300 Level New York TRACON
03:24PM 41.0167 -73.6667 304° West 126 145 1,400 -720 Descending New York TRACON
03:25PM 41.0500 -73.7000 323° Northwest 131 151 600 -840 Descending New York TRACON